SPACEBEE-167 (55087 NORAD) Tracking and Keplerian Element Data

This shows tracking and keplerian element data for the satellite.

Feedback or suggestion? Click here.




ElementValue
Catalog55087
NameSPACEBEE-167
Epoch Orbit1886
Epoch Day127.12028679
Epoch Year2023
RAAN187.5704
Inclination97.4797
Eccentricity0.0016381
Argument of Perigee144.0522
Mean Anonmoly216.1817
Mean Motion15.1814111
Decay Rate0.0002285
L11 55087U 23001CG 23127.12028679 .00022850 00000+0 11162-2 0 9990
L22 55087 97.4797 187.5704 0016381 144.0522 216.1817 15.18141110 18861



Live tracking and technical data element details for SPACEBEE-167 (NORAD 55087). SPACEBEE-167 can be tracked NOW for your location showing map with azimuth and elevation plus other details from your city location.







IsCatalogInMostPopularTable: catalog: 55087, numindb: -1

Insert: records affected: 1


GetName: 55087 SPACEBEE-167

Hit Count: inserted at: Sun, 28 May 2023 07:20:18 GMT